Weather Roundup
Issued by NWS Corpus Christi, TX

Home | Current Version | Previous Version | Text Only | Print | Product List | Glossary On
Versions: 1 2 3 4 5 6 7 8 9 10 11 12 13 14 15 16 17 18 19 20 21 22 23 24 25 26 27 28 29 30 31 32 33 34 35 36 37 38 39 40 41 42 43 44 45 46 47 48 49 50
000
ASUS44 KCRP 290410
HRRCRP

SOUTH TEXAS REGIONAL WEATHER ROUNDUP
NATIONAL WEATHER SERVICE CORPUS CHRISTI TX
1100 PM CDT SAT MAY 28 2016


TXZ229>244-290500-
...CORPUS CHRISTI AREA OBSERVATIONS...

CITY           SKY/WX    TMP DP  RH WIND       PRES   REMARKS
CORPUS CHRISTI PTCLDY    80  76  87 SE10      29.97R
NAS CORPUS CHR MOCLDY    81  77  88 SE15      29.98R
ROCKPORT       CLEAR     81  74  79 SE13      29.98R
KINGSVILLE NAS PTCLDY    79  78  97 SE13      29.97R
ALICE          CLEAR     78  74  87 SE16      29.95R
FALFURRIAS     CLEAR     80  73  81 E13       29.94S
$$

...VICTORIA AREA OBSERVATIONS...

CITY           SKY/WX    TMP DP  RH WIND       PRES   REMARKS
VICTORIA       CLOUDY    77  74  90 E7        30.00R
BEEVILLE       FAIR      76  76 100 SE7       29.98S
PLEASANTON     MOCLDY    79  72  78 SE8       29.98R
SAN ANTONIO    CLOUDY    78  73  84 SE13      30.00R
$$

...LAREDO AREA OBSERVATIONS...

CITY           SKY/WX    TMP DP  RH WIND       PRES   REMARKS
LAREDO         CLOUDY    85  73  67 SE17      29.91R HX  91
COTULLA        CLOUDY    83  73  72 SE15      29.93S
DEL RIO        CLOUDY    86  71  60 E9        29.89R HX  91
MCALLEN        CLOUDY    83  75  77 SE16G23   29.94R HX  90
HEBBRONVILLE   CLEAR     80  71  75 SE15      29.95S
$$

...OTHER TEXAS OBSERVATIONS...

CITY           SKY/WX    TMP DP  RH WIND       PRES   REMARKS
BROWNSVILLE    CLOUDY    81  76  84 SE13      29.97R
HOUSTON        MOCLDY    75  72  90 S5        30.03R
COL. STATION   CLOUDY    79  72  79 S9        30.02R
AUSTIN         TSTM      79  73  82 E5        30.04R
WACO           MOCLDY    80  72  76 SE10      30.00R HAZE
FORT WORTH     CLOUDY    80  72  76 SE9       29.99R
WICHITA FALLS  CLOUDY    76  69  79 E7        29.98R
LUBBOCK        CLOUDY    73  50  44 E13       30.05R
EL PASO        PTCLDY    76   2   5 NE8       29.96R
$$

...MARINE OBSERVATIONS...

STATION/POSITION TIME  SKY/WX   TEMP    WIND        PRES    VSBY  WAVE   SWELL
                                AIR SEA DIR/SP/G                  HT/PER HT/PER
                 (UTC)          (F)     (DEG/KT/KT) (MB)    (MI)  (FT/S) (FT/S)
PORT ARANSAS     0400            81 83  130/ 16/ 18 1015.8R
BUOY 90 E PORT A 0350            81 81   90/ 16/ 17 1015.5R         4/ 7   2/ 7
BUOY 45 SE BAFFI 0350            81 81  140/ 14/ 16 1014.5R         6/ 7   5/ 7
BUOY 200 E PT IS 0350                                 N/A           4/ 6
BUOY 15 E GALVES 0350            80 83  140/ 12/ 14 1016.4R         3/ 6   2/ 6
$$



USA.gov is the U.S. government's official web portal to all federal, state and local government web resources and services.